• In Hungary
  • List of Countries
  • For 7 days
  • Water Temperature
  • Satellite Maps
  • Weather Map
  • News
  • Weather Widgets
  • user-avatar
    Login

    Hourly Weather Santa Lucía

    Today, 24 October, Tuesday

    Time Temperature Precipitation Wind Pressure Humidity
    00:00 +25°C° 0.2 mm 1 mps 730 mmHg 94%
    01:00 +25°C° 0.1 mm 1 mps 729 mmHg 94%
    02:00 +25°C° 0.1 mm 1 mps 729 mmHg 94%
    03:00 +25°C° 0.1 mm 1 mps 729 mmHg 94%
    04:00 +25°C° 0.1 mm 1 mps 729 mmHg 94%
    05:00 +25°C° 0.1 mm 1 mps 729 mmHg 93%
    06:00 +25°C° 0.1 mm 1 mps 729 mmHg 93%
    07:00 +26°C° 0.1 mm 1 mps 730 mmHg 88%
    08:00 +28°C° 0.1 mm 1 mps 730 mmHg 83%
    09:00 +29°C° 0.1 mm 1 mps 731 mmHg 78%
    10:00 +30°C° 0.6 mm 1 mps 730 mmHg 76%
    11:00 +31°C° 0.6 mm 1 mps 730 mmHg 74%
    12:00 +32°C° 0.6 mm 1 mps 730 mmHg 71%
    13:00 +31°C° 1.1 mm 1 mps 729 mmHg 74%
    14:00 +30°C° 1.1 mm 1 mps 728 mmHg 78%
    15:00 +30°C° 1.1 mm 1 mps 728 mmHg 81%
    16:00 +29°C° 0.8 mm 1 mps 728 mmHg 84%
    17:00 +28°C° 0.8 mm 1 mps 728 mmHg 87%
    18:00 +26°C° 0.8 mm 1 mps 729 mmHg 90%
    19:00 +26°C° 0.7 mm 1 mps 729 mmHg 91%
    20:00 +26°C° 0.7 mm 1 mps 730 mmHg 92%
    21:00 +25°C° 0.7 mm 2 mps 730 mmHg 93%
    22:00 +25°C° 0.3 mm 2 mps 730 mmHg 93%
    23:00 +25°C° 0.3 mm 2 mps 730 mmHg 93%

    Tomorrow, 25 October, Wednesday

    Time Temperature Precipitation Wind Pressure Humidity
    00:00 +25°C° 0.3 mm 2 mps 730 mmHg 93%
    01:00 +25°C° 0.2 mm 2 mps 730 mmHg 92%
    02:00 +25°C° 0.2 mm 2 mps 729 mmHg 92%
    03:00 +25°C° 0.2 mm 1 mps 729 mmHg 92%
    04:00 +25°C° 0 mm 2 mps 729 mmHg 91%
    05:00 +24°C° 0 mm 2 mps 729 mmHg 91%
    06:00 +24°C° 0 mm 2 mps 729 mmHg 90%
    07:00 +26°C° 0.2 mm 2 mps 730 mmHg 85%
    08:00 +27°C° 0.2 mm 2 mps 731 mmHg 81%
    09:00 +28°C° 0.2 mm 2 mps 731 mmHg 76%
    10:00 +29°C° 0.4 mm 2 mps 731 mmHg 75%
    11:00 +29°C° 0.4 mm 2 mps 730 mmHg 73%
    12:00 +29°C° 0.4 mm 3 mps 730 mmHg 71%
    13:00 +29°C° 0.4 mm 2 mps 730 mmHg 74%
    14:00 +28°C° 0.4 mm 2 mps 729 mmHg 76%
    15:00 +27°C° 0.4 mm 2 mps 729 mmHg 78%
    16:00 +26°C° 0.2 mm 2 mps 729 mmHg 79%
    17:00 +26°C° 0.2 mm 2 mps 729 mmHg 79%
    18:00 +25°C° 0.2 mm 3 mps 730 mmHg 79%
    19:00 +25°C° 0 mm 3 mps 730 mmHg 79%
    20:00 +25°C° 0 mm 3 mps 731 mmHg 78%
    21:00 +24°C° 0 mm 3 mps 731 mmHg 78%
    22:00 +24°C° 0.2 mm 2 mps 731 mmHg 79%
    23:00 +24°C° 0.2 mm 2 mps 731 mmHg 80%

    Day after tomorrow, 26 October, Thursday

    Time Temperature Precipitation Wind Pressure Humidity
    00:00 +23°C° 0.2 mm 2 mps 731 mmHg 81%
    01:00 +23°C° 0.1 mm 2 mps 730 mmHg 81%
    02:00 +23°C° 0.1 mm 2 mps 730 mmHg 81%
    03:00 +23°C° 0.1 mm 2 mps 730 mmHg 82%
    04:00 +23°C° 0.2 mm 2 mps 730 mmHg 82%
    05:00 +23°C° 0.2 mm 2 mps 730 mmHg 82%
    06:00 +23°C° 0.2 mm 2 mps 730 mmHg 82%
    07:00 +24°C° 0 mm 3 mps 731 mmHg 80%
    08:00 +25°C° 0 mm 3 mps 732 mmHg 77%
    09:00 +26°C° 0 mm 3 mps 733 mmHg 75%
    10:00 +26°C° 0 mm 3 mps 732 mmHg 72%
    11:00 +27°C° 0 mm 3 mps 732 mmHg 69%
    12:00 +28°C° 0 mm 3 mps 732 mmHg 65%
    13:00 +28°C° 0 mm 3 mps 731 mmHg 66%
    14:00 +27°C° 0 mm 3 mps 731 mmHg 66%
    15:00 +27°C° 0 mm 2 mps 730 mmHg 67%
    16:00 +26°C° 0.1 mm 2 mps 730 mmHg 70%
    17:00 +25°C° 0.1 mm 2 mps 731 mmHg 73%
    18:00 +24°C° 0.1 mm 2 mps 731 mmHg 76%
    19:00 +24°C° 0 mm 2 mps 731 mmHg 76%
    20:00 +23°C° 0 mm 2 mps 732 mmHg 77%
    21:00 +23°C° 0 mm 2 mps 732 mmHg 77%
    22:00 +21°C° 0 mm 2 mps 732 mmHg 77%
    23:00 +21°C° 0 mm 2 mps 732 mmHg 77%

    27 October, Friday

    Time Temperature Precipitation Wind Pressure Humidity
    00:00 +21°C° 0 mm 2 mps 731 mmHg 77%
    01:00 +21°C° 0 mm 2 mps 731 mmHg 77%
    02:00 +21°C° 0 mm 2 mps 730 mmHg 76%
    03:00 +22°C° 0 mm 1 mps 730 mmHg 75%
    04:00 +21°C° 0.1 mm 2 mps 730 mmHg 75%
    05:00 +21°C° 0.1 mm 2 mps 730 mmHg 76%
    06:00 +21°C° 0.1 mm 2 mps 731 mmHg 76%
    07:00 +23°C° 0.3 mm 2 mps 731 mmHg 77%
    08:00 +24°C° 0.3 mm 2 mps 732 mmHg 77%
    09:00 +24°C° 0.3 mm 1 mps 732 mmHg 78%
    10:00 +24°C° 0.4 mm 1 mps 731 mmHg 80%
    11:00 +25°C° 0.4 mm 1 mps 731 mmHg 82%
    12:00 +25°C° 0.4 mm 1 mps 730 mmHg 83%
    13:00 +24°C° 0.5 mm 1 mps 730 mmHg 87%
    14:00 +24°C° 0.5 mm 1 mps 729 mmHg 90%
    15:00 +23°C° 0.5 mm 1 mps 729 mmHg 93%
    16:00 +23°C° 0.3 mm 1 mps 730 mmHg 93%
    17:00 +23°C° 0.3 mm 1 mps 730 mmHg 93%
    18:00 +23°C° 0.3 mm 1 mps 731 mmHg 93%
    19:00 +23°C° 0.2 mm 1 mps 731 mmHg 94%
    20:00 +23°C° 0.2 mm 1 mps 732 mmHg 94%
    21:00 +23°C° 0.2 mm 1 mps 732 mmHg 95%
    22:00 +23°C° 0.2 mm 1 mps 732 mmHg 94%
    23:00 +23°C° 0.2 mm 1 mps 732 mmHg 94%

    28 October, Saturday

    Time Temperature Precipitation Wind Pressure Humidity
    00:00 +23°C° 0.2 mm 1 mps 731 mmHg 93%
    01:00 +23°C° 0.4 mm 1 mps 731 mmHg 93%
    02:00 +23°C° 0.4 mm 1 mps 731 mmHg 93%
    03:00 +23°C° 0.4 mm 1 mps 730 mmHg 93%
    04:00 +23°C° 0.2 mm 1 mps 731 mmHg 93%
    05:00 +23°C° 0.2 mm 1 mps 731 mmHg 93%
    06:00 +23°C° 0.2 mm 1 mps 732 mmHg 93%
    07:00 +25°C° 0 mm 1 mps 732 mmHg 86%
    08:00 +27°C° 0 mm 1 mps 733 mmHg 79%
    09:00 +29°C° 0 mm 1 mps 733 mmHg 71%
    10:00 +30°C° 0.1 mm 1 mps 733 mmHg 66%
    11:00 +31°C° 0.1 mm 2 mps 732 mmHg 62%
    12:00 +31°C° 0.1 mm 2 mps 732 mmHg 57%
    13:00 +31°C° 0.2 mm 2 mps 731 mmHg 60%
    14:00 +30°C° 0.2 mm 2 mps 731 mmHg 63%
    15:00 +29°C° 0.2 mm 2 mps 730 mmHg 67%
    16:00 +28°C° 0.2 mm 1 mps 731 mmHg 73%
    17:00 +26°C° 0.2 mm 1 mps 731 mmHg 79%
    18:00 +23°C° 0.2 mm 0 mps 732 mmHg 85%
    19:00 +25°C° 0.5 mm 1 mps 732 mmHg 86%
    20:00 +24°C° 0.5 mm 1 mps 732 mmHg 87%
    21:00 +24°C° 0.5 mm 2 mps 732 mmHg 89%
    22:00 +24°C° 4.4 mm 1 mps 732 mmHg 90%
    23:00 +24°C° 4.4 mm 1 mps 731 mmHg 92%

    29 October, Sunday

    Time Temperature Precipitation Wind Pressure Humidity
    00:00 +24°C° 4.4 mm 1 mps 731 mmHg 93%
    01:00 +24°C° 9.8 mm 1 mps 731 mmHg 94%
    02:00 +24°C° 9.8 mm 1 mps 731 mmHg 95%
    03:00 +23°C° 9.8 mm 1 mps 730 mmHg 95%
    04:00 +23°C° 7.8 mm 1 mps 731 mmHg 96%
    05:00 +23°C° 7.8 mm 1 mps 731 mmHg 96%
    06:00 +23°C° 7.8 mm 1 mps 731 mmHg 96%
    07:00 +23°C° 6 mm 1 mps 731 mmHg 96%
    08:00 +23°C° 6 mm 1 mps 732 mmHg 96%
    09:00 +23°C° 6 mm 1 mps 732 mmHg 96%
    10:00 +23°C° 5.7 mm 1 mps 731 mmHg 96%
    11:00 +23°C° 5.7 mm 1 mps 731 mmHg 96%
    12:00 +23°C° 5.7 mm 1 mps 731 mmHg 97%
    13:00 +23°C° 1.9 mm 1 mps 730 mmHg 96%
    14:00 +24°C° 1.9 mm 1 mps 730 mmHg 95%
    15:00 +24°C° 1.9 mm 1 mps 730 mmHg 94%
    16:00 +24°C° 0.4 mm 1 mps 730 mmHg 94%
    17:00 +23°C° 0.4 mm 2 mps 730 mmHg 94%
    18:00 +23°C° 0.4 mm 2 mps 731 mmHg 94%
    19:00 +23°C° 0.1 mm 2 mps 731 mmHg 94%
    20:00 +23°C° 0.1 mm 2 mps 732 mmHg 93%
    21:00 +23°C° 0.1 mm 2 mps 732 mmHg 93%
    22:00 +23°C° 0 mm 2 mps 732 mmHg 93%
    23:00 +21°C° 0 mm 2 mps 732 mmHg 92%

    30 October, Monday

    Time Temperature Precipitation Wind Pressure Humidity
    00:00 +21°C° 0 mm 2 mps 731 mmHg 92%
    01:00 +21°C° 0 mm 2 mps 731 mmHg 91%
    02:00 +21°C° 0 mm 2 mps 731 mmHg 91%
    03:00 +21°C° 0 mm 2 mps 731 mmHg 91%
    04:00 +21°C° 0 mm 2 mps 731 mmHg 90%
    05:00 +21°C° 0 mm 2 mps 731 mmHg 90%
    06:00 +21°C° 0 mm 2 mps 732 mmHg 90%
    07:00 +23°C° 0 mm 2 mps 732 mmHg 85%
    08:00 +25°C° 0 mm 2 mps 733 mmHg 80%
    09:00 +26°C° 0 mm 2 mps 733 mmHg 74%
    10:00 +28°C° 0 mm 2 mps 733 mmHg 71%
    11:00 +29°C° 0 mm 2 mps 732 mmHg 67%
    12:00 +30°C° 0 mm 2 mps 732 mmHg 63%
    13:00 +30°C° 0 mm 2 mps 731 mmHg 64%
    14:00 +29°C° 0 mm 2 mps 731 mmHg 66%
    15:00 +29°C° 0 mm 2 mps 730 mmHg 67%
    16:00 +28°C° 0 mm 2 mps 731 mmHg 71%
    17:00 +26°C° 0 mm 2 mps 731 mmHg 75%
    18:00 +25°C° 0 mm 2 mps 731 mmHg 80%
    19:00 +24°C° 0 mm 2 mps 732 mmHg 80%
    20:00 +24°C° 0 mm 2 mps 732 mmHg 80%
    21:00 +23°C° 0 mm 2 mps 733 mmHg 79%
    22:00 +23°C° 0 mm 2 mps 733 mmHg 80%
    23:00 +23°C° 0 mm 2 mps 733 mmHg 80%
    Show more